[[{"header":{"parameterUnit":"m.s-1","parameterCategory":1,"la1":30.2991,"la2":30.254,"lo1":-89.0895,"lo2":-89.0444,"dy":0.0017,"dx":0.0017,"nx":28,"ny":28,"refTime":"2024-03-25T03:00:00:Z","depth":0,"parameterNumber":2,"parameterNumberName":"U-component_of_WINDS"},"data":[0,0,0,0,0,0,0,0,0,0,0,0,0,0,0,0,0,0,0,0,0,0,0,0,0,0,0,0,0,0,0,0,0,0,0,0,0,0,0,0,0,0,0,0,0,0,0,0,0,0,0,0,0,0,0,0,0,0,0.9215,0.9214,0,0.9107,0.9105,0.9104,0.9015,0.9014,0.9013,0.9012,0.8903,0.8901,0.8899,0,0,0,0,0,0,0,0,0,0,0,0,0,0.9345,0.9343,0.9215,0.9214,0.9212,0.9107,0.9105,0.9104,0.9015,0.9014,0.9013,0.9012,0.8903,0.8901,0.8898,0,0,0,0,0,0,0,0,0,0,0,0,0,0.9268,0.9343,0.9215,0.9155,0.9149,0.9107,0.9105,0.9103,0.9015,0.9014,0.9013,0.9011,0.8904,0.8901,0.8898,0.8907,0,0,0.8889,0.8887,0,0,0,0,0,0,0,0,0.9273,0.9264,0.9165,0.9159,0.9152,0.9073,0.9111,0.9038,0.9016,0.9066,0.9012,0.9011,0.896,0.8953,0.8935,0.8902,0.8898,0.8888,0.8887,0.8885,0.8884,0,0,0,0,0,0,0,0.9278,0.9268,0.9172,0.9164,0.9156,0.9134,0.9121,0.9097,0.9023,0.9062,0.9055,0.9043,0.8957,0.8939,0.8932,0.8896,0.8889,0.8886,0.8884,0.8883,0.8864,0.8866,0,0,0,0,0,0,0.9293,0.9273,0.9176,0.9169,0.921,0.9133,0.9119,0.91,0.9023,0.9009,0.9045,0.904,0.8945,0.8936,0.8928,0.8933,0.8885,0.8882,0.8881,0.8863,0.8865,0.8866,0,0,0,0,0,0,0.9296,0.9285,0.918,0.9219,0.9204,0.9132,0.9111,0.9098,0.908,0.901,0.8996,0.904,0.8943,0.8932,0.8913,0.8928,0.8881,0.8878,0.8861,0.8863,0.8865,0.8944,0,0,0,0,0,0,0.93,0.9287,0.9289,0.922,0.9202,0.9167,0.9112,0.9097,0.9075,0.9067,0.9002,0.8989,0.8941,0.8918,0.891,0.8923,0.8876,0.886,0.8862,0.8865,0.894,0.8949,0.8956,0,0,0,0,0,0.9305,0.9316,0.929,0.9279,0.9204,0.9168,0.9158,0.9102,0.9077,0.9079,0.9033,0.8992,0.8928,0.8917,0.8907,0.8919,0.8858,0.8862,0.8864,0.8936,0.8947,0.8956,0,0,0,0,0,0,0.939,0.9306,0.9276,0.9265,0.9224,0.9153,0.9153,0.9115,0.908,0.9075,0.9007,0.8993,0.8981,0.8948,0.8937,0.8924,0.8888,0.8889,0.8946,0.8955,0.8963,0.8971,0.8873,0,0,0,0,0,0.9407,0.9384,0.9312,0.931,0.9291,0.9226,0.9208,0.9168,0.9124,0.9106,0.9059,0.9018,0.8988,0.897,0.8939,0.8935,0.8919,0.8939,0.8947,0.8954,0.8956,0.895,0.8958,0.8876,0.8876,0.8876,0,0,0.9443,0.9394,0.9384,0.9325,0.9289,0.9267,0.9212,0.9191,0.9174,0.9103,0.9081,0.9046,0.8995,0.8983,0.8976,0.8955,0.8975,0.8958,0.8964,0.8962,0.8954,0.8962,0.8969,0.8878,0.8878,0.8877,0,0,0.9496,0.9458,0.945,0.9415,0.9361,0.9318,0.9316,0.9251,0.9224,0.9201,0.9147,0.9126,0.9077,0.9043,0.9019,0.906,0.902,0.9052,0.9094,0.909,0.9096,0.9101,0.9115,0.9121,0.9054,0.9054,0.9054,0,0.9547,0.9512,0.9452,0.9434,0.941,0.9344,0.9336,0.9305,0.9244,0.9229,0.9207,0.9144,0.9105,0.9084,0.9094,0.9077,0.9073,0.9058,0.91,0.9105,0.9109,0.9121,0.9127,0.9058,0.9058,0.9057,0.9057,0,0.9577,0.9553,0.9554,0.9496,0.9472,0.946,0.9398,0.9381,0.9344,0.9303,0.9281,0.9232,0.9189,0.9182,0.9145,0.9155,0.9144,0.9113,0.9074,0.9122,0.9132,0.9137,0.9064,0.9063,0.9061,0.906,0,0,0.968,0.9589,0.959,0.9563,0.9498,0.9479,0.9464,0.9422,0.9408,0.9368,0.9353,0.9313,0.9283,0.9256,0.9215,0.9212,0.9247,0.918,0.9178,0.9193,0.9254,0.9278,0.9284,0.922,0.9221,0.9221,0.9258,0,0.9722,0.969,0.9636,0.9622,0.9599,0.9536,0.9523,0.9482,0.9444,0.9419,0.9377,0.9349,0.9312,0.9295,0.9289,0.9244,0.9258,0.924,0.9205,0.9205,0.9219,0.9289,0.9314,0.9351,0.9262,0.9262,0.9263,0,0.9767,0.973,0.9714,0.9651,0.9639,0.9628,0.9585,0.9562,0.9514,0.9487,0.9457,0.9412,0.9393,0.9359,0.9331,0.9321,0.9303,0.9279,0.9279,0.9273,0.9236,0.9284,0.9362,0.9367,0.9269,0.9268,0.9268,0,0.9843,0.9789,0.9772,0.9751,0.9677,0.9671,0.9639,0.959,0.9569,0.9531,0.9516,0.9478,0.9457,0.9428,0.9374,0.9355,0.9352,0.9314,0.9328,0.9329,0.9329,0.933,0.9404,0.932,0.932,0.932,0.932,0,0.9895,0.9887,0.9805,0.9795,0.9784,0.9722,0.9713,0.9676,0.9633,0.9614,0.9559,0.9542,0.9473,0.9448,0.9406,0.9389,0.938,0.9357,0.9346,0.9361,0.9364,0.9348,0.9344,0.9322,0.9321,0.9321,0.9321,0,0.9977,0.9922,0.9899,0.9831,0.9814,0.9809,0.975,0.9738,0.9696,0.9673,0.9664,0.96,0.9568,0.9511,0.9464,0.9436,0.9427,0.9408,0.9443,0.9435,0.9453,0.9451,0.9518,0.9523,0.9438,0.9439,0.944,0,1.0014,1.0006,0.9937,0.992,0.9891,0.9865,0.9842,0.9782,0.976,0.9705,0.97,0.9663,0.9631,0.9583,0.9532,0.9495,0.9475,0.9501,0.9469,0.9484,0.9474,0.9474,0.9473,0.9508,0.9509,0.951,0.9511,0,1.0084,1.0057,1.0026,0.9986,0.9961,0.9927,0.9889,0.9879,0.981,0.9789,0.9755,0.9731,0.9682,0.9646,0.9602,0.957,0.9529,0.9521,0.9522,0.9538,0.9558,0.9546,0.9461,0.952,0.9519,0.9518,0.9518,0.9517,1.0143,1.0133,1.0083,1.0051,1.0016,0.9983,0.9968,0.9924,0.9895,0.985,0.9817,0.9786,0.9738,0.9674,0.9645,0.962,0.9601,0.9603,0.9603,0.9604,0.961,0.9563,0.9612,0.9611,0.9611,0.9611,0.9611,0,1.0209,1.0174,1.0145,1.0095,1.0069,1.0033,0.999,0.9971,0.9945,0.9904,0.9873,0.9835,0.98,0.9746,0.9707,0.9698,0.9678,0.969,0.9689,0.9682,0.963,0.9632,0.9706,0.9706,0.9706,0.9706,0.9706,0.9706,1.024,1.0221,1.0189,1.0152,1.0117,1.0086,1.0064,1.0033,1.0,0.996,0.9931,0.9896,0.9849,0.9807,0.9773,0.9758,0.9746,0.9764,0.9743,0.9695,0.9686,0.9677,0.9679,0.9762,0.9762,0.9797,0.9797,0.9798]},{"header":{"parameterUnit":"m.s-1","parameterCategory":1,"la1":30.2991,"la2":30.254,"lo1":-89.0895,"lo2":-89.0444,"dy":0.0017,"dx":0.0017,"nx":28,"ny":28,"refTime":"2024-03-25T03:00:00:Z","depth":0,"parameterNumber":3,"parameterNumberName":"V-component_of_WINDS"},"data":[0,0,0,0,0,0,0,0,0,0,0,0,0,0,0,0,0,0,0,0,0,0,0,0,0,0,0,0,0,0,0,0,0,0,0,0,0,0,0,0,0,0,0,0,0,0,0,0,0,0,0,0,0,0,0,0,0,0,1.3899,1.3899,0,1.3941,1.3941,1.3942,1.3922,1.392,1.3919,1.3918,1.3958,1.396,1.3962,0,0,0,0,0,0,0,0,0,0,0,0,0,1.3796,1.3798,1.3899,1.3899,1.39,1.3941,1.3941,1.3942,1.3922,1.392,1.3919,1.3918,1.3958,1.396,1.3962,0,0,0,0,0,0,0,0,0,0,0,0,0,1.384,1.3799,1.3899,1.3895,1.3895,1.394,1.3941,1.3942,1.3922,1.392,1.3919,1.3917,1.3957,1.396,1.3963,1.4014,0,0,1.3972,1.3973,0,0,0,0,0,0,0,0,1.3837,1.3843,1.3895,1.3895,1.3895,1.3924,1.392,1.3966,1.3922,1.3912,1.3918,1.3917,1.3948,1.3952,1.3963,1.4016,1.4017,1.3972,1.3974,1.3976,1.3976,0,0,0,0,0,0,0,1.3834,1.3841,1.3915,1.3895,1.3896,1.3889,1.3894,1.3928,1.3938,1.3912,1.3911,1.3916,1.3948,1.396,1.3964,1.4018,1.3972,1.3975,1.3977,1.3978,1.4112,1.4113,0,0,0,0,0,0,1.3832,1.3839,1.3914,1.3916,1.3862,1.3892,1.3897,1.3916,1.3938,1.3939,1.3918,1.3915,1.3956,1.396,1.3965,1.4025,1.3976,1.3978,1.398,1.411,1.4112,1.4114,0,0,0,0,0,0,1.383,1.3839,1.3912,1.3877,1.3886,1.3896,1.3918,1.3918,1.393,1.3942,1.3943,1.3929,1.3955,1.3961,1.4001,1.4026,1.398,1.3983,1.4108,1.4111,1.4113,1.4146,0,0,0,0,0,0,1.3827,1.3838,1.3859,1.3878,1.3888,1.3949,1.3919,1.392,1.3936,1.3933,1.3953,1.3954,1.3954,1.3997,1.4004,1.4029,1.3985,1.4106,1.4109,1.4112,1.4142,1.4149,1.4155,0,0,0,0,0,1.3823,1.3866,1.386,1.3869,1.3915,1.3951,1.3957,1.3956,1.3938,1.3958,1.3965,1.3954,1.4022,1.4001,1.401,1.4036,1.4104,1.4108,1.4112,1.414,1.4148,1.4154,0,0,0,0,0,0,1.3849,1.3869,1.3862,1.3913,1.393,1.3947,1.3973,1.3965,1.3987,1.3984,1.3981,1.3985,1.4027,1.4035,1.4012,1.4085,1.406,1.4066,1.4078,1.4086,1.4092,1.4089,1.3988,0,0,0,0,0,1.3861,1.389,1.3905,1.3948,1.3957,1.3964,1.3979,1.3977,1.3995,1.4002,1.4012,1.4029,1.4053,1.407,1.4094,1.4143,1.4146,1.4165,1.4171,1.4176,1.4181,1.4206,1.4214,1.4126,1.4126,1.4126,0,0,1.3886,1.39,1.3918,1.3954,1.3967,1.3996,1.397,1.4002,1.4023,1.4007,1.4046,1.4053,1.4071,1.4116,1.4136,1.4124,1.4205,1.4181,1.4185,1.4187,1.421,1.4219,1.4226,1.4129,1.4128,1.4128,0,0,1.3945,1.3959,1.3996,1.4009,1.403,1.4033,1.4042,1.406,1.4064,1.4104,1.4092,1.4115,1.4159,1.4172,1.4184,1.4245,1.4235,1.4253,1.4285,1.4309,1.4316,1.4322,1.4343,1.4351,1.4258,1.4258,1.4258,0,1.3972,1.4017,1.4015,1.4048,1.4063,1.405,1.4086,1.4099,1.4126,1.4135,1.4122,1.4175,1.4186,1.4233,1.4248,1.4258,1.4267,1.4251,1.4315,1.4321,1.4327,1.4347,1.4355,1.426,1.426,1.4259,1.4259,0,1.4049,1.4079,1.4106,1.4133,1.415,1.4185,1.4187,1.4205,1.42,1.4205,1.4243,1.4256,1.4282,1.4292,1.4289,1.4338,1.433,1.4316,1.4291,1.4337,1.4356,1.4364,1.4263,1.4262,1.4261,1.4261,0,0,1.4127,1.4151,1.4161,1.4172,1.4193,1.4215,1.4247,1.4273,1.4288,1.4306,1.4332,1.4368,1.4354,1.4368,1.4365,1.4387,1.4433,1.437,1.437,1.438,1.4486,1.4497,1.4506,1.4425,1.4427,1.4428,1.4484,0,1.4187,1.4245,1.4244,1.4297,1.4324,1.431,1.4338,1.4353,1.4357,1.4379,1.4383,1.4408,1.4389,1.4397,1.4418,1.4423,1.4454,1.4419,1.4448,1.445,1.4445,1.4515,1.4527,1.458,1.4492,1.4493,1.4494,0,1.4266,1.4287,1.4343,1.4357,1.4368,1.4394,1.4415,1.4437,1.4452,1.4454,1.4468,1.4461,1.4492,1.4466,1.4507,1.4483,1.4495,1.4499,1.4501,1.4504,1.4475,1.452,1.4597,1.4605,1.4505,1.4504,1.4504,0,1.4317,1.4358,1.4397,1.4407,1.4425,1.4443,1.4451,1.4464,1.4479,1.4497,1.4506,1.4528,1.454,1.4556,1.4554,1.4536,1.4596,1.457,1.4597,1.4597,1.4611,1.461,1.469,1.4618,1.4618,1.4618,1.4618,0,1.4384,1.4418,1.442,1.4443,1.4481,1.4478,1.4514,1.452,1.4532,1.4555,1.4544,1.4566,1.4563,1.4584,1.4583,1.4616,1.4622,1.4623,1.4622,1.4624,1.4624,1.4632,1.4628,1.462,1.462,1.4619,1.4619,0,1.4448,1.445,1.4491,1.4504,1.4508,1.4535,1.4545,1.4567,1.4569,1.4599,1.4605,1.4609,1.4633,1.4633,1.4661,1.4659,1.4701,1.4696,1.4696,1.4695,1.4722,1.4719,1.481,1.4821,1.4742,1.4743,1.4744,0,1.4491,1.4517,1.4532,1.4547,1.4557,1.4581,1.4596,1.4593,1.4608,1.4626,1.4645,1.4668,1.4687,1.4726,1.473,1.4751,1.4746,1.4776,1.4749,1.4749,1.4746,1.4744,1.4746,1.4782,1.4783,1.4783,1.4784,0,1.4566,1.4566,1.4588,1.4609,1.4627,1.4644,1.4659,1.4672,1.467,1.4688,1.4712,1.4727,1.4754,1.4777,1.4797,1.4803,1.4793,1.4792,1.48,1.4802,1.4801,1.4801,1.471,1.479,1.479,1.4789,1.4789,1.4789,1.4621,1.4642,1.4656,1.468,1.4692,1.4706,1.4726,1.4731,1.4752,1.4774,1.4771,1.4798,1.481,1.4835,1.4843,1.4864,1.4853,1.4864,1.4866,1.4869,1.4872,1.4797,1.4867,1.4867,1.4867,1.4867,1.4867,0,1.4695,1.4703,1.4725,1.4747,1.4765,1.4754,1.477,1.4786,1.481,1.4822,1.4841,1.4868,1.4889,1.4895,1.4915,1.493,1.4926,1.4936,1.4934,1.4936,1.4881,1.4872,1.4939,1.4939,1.4939,1.4939,1.4939,1.4939,1.4736,1.4772,1.4773,1.4813,1.482,1.4847,1.4857,1.4869,1.4879,1.4911,1.4928,1.4932,1.4941,1.4961,1.498,1.4981,1.4988,1.5,1.4999,1.4947,1.494,1.4933,1.4925,1.5002,1.5002,1.5052,1.5053,1.5053]}]]